Время (UTC), дата Ветер
(°,м/с) 
Видим.   Явления Облачность Т
(°С)
Тd
(°С)
f(%) Тe
(°С)
Pmin
(гПа)
dP
(гПа)
Po
(мм)
O2
(г/м3)
Тmin Tmax R s Состояние
почвы
00 01.10.16 230 (ЮЗ) 3000 м  дымка  ясно 
+7.7 +7.1 96 +8  1025.6  0.4  728  284           
03 01.10.16 230 (ЮЗ) 4000 м  дымка  4/0 средняя 
[Ac trans]
+8.3 +7.6 95 +9  1025.8  0.3  729  284  +5.6        влажная 
06 01.10.16 160 (Ю) 10 км    3/0 средняя 
[Ac trans]
+13 +9.7 80 +14  1025.7  0.8  729  279           
09 01.10.16 140 (ЮВ) 20000 м    4/4 600 м 
[Sc]
+17.7 +8.2 54 +19  1024.4  -0.4  729  274           
12 01.10.16 110 (В) 20000 м    1/0 средняя 
[Ac trans]
+19.1 +7.8 48 +20  1023  -1  728  273           
15 01.10.16 100 (В) 20000 м    ясно 
+14.4 +7.9 65 +15  1023.3  -0.5  728  277    +19.6       
18 01.10.16 090 (В) 20000 м    ясно 
+11 +6.6 74 +10  1023.9  0.1  728  281           
21 01.10.16 080 (В) 20000 м    ясно 
+9.5 +5.7 77 +10  1023.7  -0.5  727  282           
00 02.10.16 100 (В) 20000 м    ясно 
+9.4 +6.1 80 +8  1023.1  -0.6  727  282           
03 02.10.16 110 (В) 20000 м    3/0 верхняя 
[Ci fib]
+8.6 +6.4 86 +7  1023  -0.2  727  283  +7.9        сухая 
06 02.10.16 100 (В) 20000 м    3/0 верхняя 
[Ci fib]
+13 +9.3 78 +13  1021.7  -0.3  726  278           
09 02.10.16 100 (В) 8-11{12}  20000 м    1/1 300 м 
[St]
+16.9 +9.6 62 +17  1020.6  -0.4  726  274           
12 02.10.16 110 (В) 7-10{12}  20000 м    3/0 средняя 
[Ac trans]
+19.6 +10.5 56 +22  1019.8  -0.3  726  271           
15 02.10.16 100 (В) 6{12}  20000 м    1/0 средняя 
[Ac trans]
+18 +10.1 60 +20  1019.6  -0.4  726  272    +20.2       
18 02.10.16 100 (В) 20000 м    ясно 
+14 +10.3 78 +15  1020.3  0.1  726  276           
21 02.10.16 100 (В) 20000 м    ясно 
+12.2 +11 92 +15  1020.7  0.1  726  278           
00 03.10.16 120 (ЮВ) 5000 м  дымка  10/6 200 м средняя 
[St|Ac und]
+12.6 +11.9 95 +17  1020.2  -0.4  725  277           
03 03.10.16 130 (ЮВ) 4000 м  дымка  10/10 200 м 
[St]
+13 +12.2 95 +18  1020.1  725  277  +11.2        влажная 
06 03.10.16 110 (В) 20000 м    10/10 300 м 
[St]
+14.3 +12.5 89 +19  1020.2  0.4  726  275           
09 03.10.16 110 (В) 20000 м    4/4 600 м 
[Sc]
+19.4 +11.7 61 +24  1018.3  -0.9  725  270           
12 03.10.16 090 (В) 20000 м    6/0 верхняя 
[Ci]
+21 +11.8 56 +25  1017.2  -0.8  724  269           
15 03.10.16 080 (В) 20000 м    6/0 верхняя 
[Ci fib]
+16.5 +11.9 74 +22  1017.8  -0.2  724  273    +21.3       
18 03.10.16 150 (ЮВ) 20000 м    ясно 
+13.2 +11.3 88 +18  1017.9  -0.6  724  276           
21 03.10.16 150 (ЮВ) 20000 м    ясно 
+13.2 +11.3 88 +18  1017.9  -1  723  276           
00 04.10.16 120 (ЮВ) 20000 м    ясно 
+10.1 +9.3 95 +11  1016.4  -1  722  279           
03 04.10.16 140 (ЮВ) 20000 м    ясно 
+10.6 +9.7 94 +12  1016  -0.3  722  278  +8.9        сухая 
06 04.10.16 160 (Ю) 20000 м    ясно 
+17.3 +12.3 72 +24  1014.8  0.1  722  271           
09 04.10.16 030 (СВ) 20000 м    ясно 
+21.5 +12.6 57 +27  1013.4  -0.6  722  267           
12 04.10.16 360 (С) 20000 м    ясно 
+23.4 +10.8 45 +26  1012.7  -0.4  721  266           
15 04.10.16 050 (СВ) 20000 м    1/0 верхняя 
[Ci fib]
+18.4 +11.8 65 +23  1013.9  0.3  722  270    +23.6       
18 04.10.16 120 (ЮВ) 20000 м    ясно 
+14.3 +10.7 79 +19  1014.7  722  274           
21 04.10.16 170 (Ю) 20000 м    ясно 
+13.9 +10.4 79 +17  1014.2  -0.5  721  275           
00 05.10.16 200 (Ю) 20000 м    ясно 
+12.5 +8.8 78 +14  1014.1  -0.5  721  276           
03 05.10.16 190 (Ю) 20000 м    ясно 
+9.7 +7.5 86 +10  1014.9  0.3  721  279  +9.7        сухая 
06 05.10.16 130 (ЮВ) 20000 м    ясно 
+17.6 +12 70 +23  1013.9  0.5  722  271  +9         
09 05.10.16 100 (В) 20000 м    ясно 
+22.9 +10.6 46 +26  1012.5  -0.4  721  266           
12 05.10.16 080 (В) 20000 м    ясно 
+23.4 +9.7 42 +25  1012.2  -0.3  721  266           
15 05.10.16 080 (В) 20000 м    1/0 верхняя 
[Ci fib]
+16.3 +9.8 65 +18  1013.9  0.4  721  272    +24.2       
18 05.10.16 140 (ЮВ) 20000 м    ясно 
+14.1 +9.8 75 +16  1014.9  0.6  722  275           
21 05.10.16 150 (ЮВ) 20000 м    ясно 
+13.2 +9.2 77 +15  1014.5  -0.6  721  276           
00 06.10.16 150 (ЮВ) 20000 м    ясно 
+12.1 +9.3 83 +13  1015  0.3  722  277           
03 06.10.16 190 (Ю) 20000 м    ясно 
+10 +8.5 90 +11  1016.2  0.8  722  279  +10        сухая 
06 06.10.16 320 (СЗ) 20000 м    ясно 
+16.3 +11.2 72 +22  1016.5  1.4  723  273  +9.9         
09 06.10.16 290 (З) 10 км    9/9 300 м 
[St]
+17.1 +12.5 74 +22  1017.2  0.9  724  272           
12 06.10.16 310 (СЗ) 20000 м    3/0 средняя 
[Ac trans]
+20 +12.5 62 +25  1016.8  0.1  724  269           
15 06.10.16 330 (СЗ) 20000 м    3/0 средняя 
[Ac trans]
+16.5 +12.6 78 +23  1018.1  0.6  724  273    +20.4       
18 06.10.16 тихо ()   0900 м  туман  ясно 
+13.1 +12 93 +18  1018.8  724  276           
21 06.10.16 360 (С) 0100 м  туман  ?/?  
+12.6 +11.9 95 +19  1018.8  -0.2  724  277           
00 07.10.16 тихо ()   0100 м  туман  ?/?  
+12.7 +12 96 +17  1018.9  0.2  724  277           
03 07.10.16 230 (ЮЗ) 3000 м  дымка{туман}  10/10 300 м 
[St]
+12.2 +11.6 96 +17  1019.1  0.1  724  277  +11.7        влажная 
06 07.10.16 010 (С) 20000 м  {туман}  10/10 300 м 
[St]
+14.1 +13.5 96 +22  1018.6  724  275           
09 07.10.16 020 (С) 20000 м    10/10 300 м 
[Sc]
+16.2 +12.5 79 +22  1017.5  -0.7  724  273           
12 07.10.16 030 (СВ) 20000 м    8/5 600 м средняя 
[Sc|Ac trans]
+17.3 +12.3 72 +23  1017.2  -0.1  724  272           
15 07.10.16 010 (С) 20000 м    3/0 верхняя 
[Ci fib]
+14.6 +11.8 83 +20  1018.2  0.4  724  275    +17.7       
18 07.10.16 200 (Ю) 20000 м    3/0 средняя 
[Ac trans]
+11.3 +10.5 95 +15  1018.6  -0.2  724  278           
21 07.10.16 210 (ЮЗ) 4000 м  дымка  ясно 
+10.6 +9.8 95 +14  1018.4  -0.3  724  279           
00 08.10.16 150 (ЮВ) 10 км    ясно 
+11.5 +10.8 95 +14  1017.4  -0.8  723  278           
03 08.10.16 130 (ЮВ) 1200 м  дымка  3/0 средняя 
[Ac trans]
+11.8 +11.1 95 +15  1017.1  -0.3  723  277  +9.9        сухая 
06 08.10.16 120 (ЮВ) 10 км    3/0 верхняя 
[Ci fib]
+15.3 +12.9 86 +22  1015.9  -0.5  723  273           
09 08.10.16 090 (В) 20000 м    3/0 средняя, верхняя 
[Ac trans|Ci fib]
+20.9 +13.1 61 +27  1013  -1.8  721  267           
12 08.10.16 120 (ЮВ) 7{10}  20000 м    5/0 верхняя 
[Ci fib]
+22.8 +11.3 48 +27  1011.1  -1.5  720  266           
15 08.10.16 100 (В) 20000 м    4/0 верхняя 
[Ci fib]
+18.5 +11.2 62 +23  1011.6  -0.3  720  270    +22.9       
18 08.10.16 120 (ЮВ) 20000 м    4/0 верхняя 
[Ci fib]
+14.3 +11.3 82 +19  1012.9  0.6  720  274           
21 08.10.16 170 (Ю) 20000 м    3/0 верхняя 
[Ci fib]
+13.2 +11.1 87 +16  1013.1  0.6  720  275           
00 09.10.16 260 (З) 20000 м    5/0 верхняя 
[Ci fib]
+13.3 +11.6 89 +17  1013.7  0.7  721  275           
03 09.10.16 310 (СЗ) 3{15}  20000 м    8/4 1000 м кучево-дожд., средняя 
[Cb calv|Ac trans]
+15.3 +12 81 +21  1014.8  1.4  722  273  +11.4        сухая 
06 09.10.16 280 (З) 20000 м  в посл. час ливневой дождь  10/5 600 м кучево-дожд., средняя 
[Cb cap|Ac und]
+15.6 +12.4 81 +21  1017  2.1  723  273           
09 09.10.16 280 (З) 20000 м  в посл. час ливневой дождь  10/4 300 м кучево-дожд., средняя 
[Cb cap|Ac und]
+16.3 +12.8 80 +22  1017.7  0.8  724  273           
12 09.10.16 260 (З) 20000 м  {ливн. осадки}  9/3 600 м кучево-дожд., средняя 
[Cb calv|Ac trans]
+17.1 +11.1 68 +20  1018.4  0.8  725  273           
15 09.10.16 250 (З) 10 км  слаб. ливневой дождь  10/6 300 м кучево-дожд., средняя 
[Cb cap|Ac und]
+13.4 +12.2 92 +18  1019.9  0.7  725  276    +17.6     
18 09.10.16 240 (ЮЗ) 20000 м  {ливн. осадки}  10/4 600 м кучево-дожд., средняя 
[Cb calv|Ac und]
+12.6 +11.2 91 +16  1020.7  0.7  726  277           
21 09.10.16 340 (С) 20000 м    10/6 300 м кучево-дожд., средняя 
[Cb calv|Ac und]
+12.7 +10.6 87 +16  1020.9  0.2  726  277           
00 10.10.16 320 (СЗ) 20000 м  {ливн. осадки}  10/5 600 м кучево-дожд., средняя 
[Cb calv|Ac und]
+11.8 +10.1 89 +14  1021.1  726  278           
03 10.10.16 310 (СЗ) 20000 м    10/5 600 м кучево-дожд., средняя 
[Cb calv|Ac und]
+10.7 +8.4 86 +10  1021.8  0.4  726  280  +10.7    0.8    влажная 
06 10.10.16 290 (З) 20000 м    10/5 1000 м кучево-дожд., средняя 
[Cb calv|Ac und]
+11.6 +5.9 68 +12  1022.4  0.7  727  280  +10.3         
09 10.10.16 290 (З) 20000 м    10/3 600 м средняя 
[Sc diur, vesp|Ac und]
+13.6 +5.3 57 +13  1021.8  -0.2  727  278           
12 10.10.16 290 (З) 20000 м    6/5 1000 м средняя 
[Sc diur, vesp|Ac trans]
+15.1 +5.3 52 +15  1020.9  -0.6  726  276           
15 10.10.16 270 (З) 20000 м    8/6 1000 м средняя 
[Sc diur, vesp|Ac trans]
+12.4 +5.4 62 +13  1021.8  0.4  726  279    +15.6       
18 10.10.16 340 (С) 20000 м    6/0 средняя 
[Ac As]
+9.8 +4.5 70 +10  1022.6  0.2  727  282           
21 10.10.16 360 (С) 20000 м    8/3 1000 м средняя 
[Sc|Ac trans]
+9.3 +3.7 68 +10  1022.6  727  282           
00 11.10.16 040 (СВ) 20000 м    8/3 1000 м средняя 
[Sc|Ac trans]
+10 +4.2 67 +11  1021.8  -0.7  726  281           
03 11.10.16 010 (С) 20000 м    10/5 1000 м средняя 
[Sc|Ac und]
+8.9 +4.7 75 +9  1021  -0.9  725  282  +8.9        влажная 
06 11.10.16 030 (СВ) 20000 м    10/3 1000 м средняя 
[Sc|Ac und]
+10 +5.1 72 +10  1021.5  0.6  726  281  +8.1         
09 11.10.16 040 (СВ) 20000 м    9/3 1000 м средняя 
[Sc|Ac trans]
+13.4 +5.5 59 +13  1020.2  -0.5  725  278           
12 11.10.16 050 (СВ) 20000 м    9/0 средняя, верхняя 
[Ac trans|Ci fib]
+13.2 +5.2 58 +13  1019.8  -0.5  725  278           
15 11.10.16 030 (СВ) 20000 м    8/0 средняя 
[Ac trans]
+10.6 +4.5 66 +10  1020.9  0.6  725  281    +13.8       
18 11.10.16 050 (СВ) 20000 м    10/3 1000 м средняя 
[Sc|Ac und]
+9.6 +2.9 63 +9  1021.7  0.6  726  282           
21 11.10.16 070 (В) 20000 м    10/4 1000 м средняя 
[Sc|Ac und]
+8.7 +4 72 +8  1021.3  -0.6  725  283           
00 12.10.16 080 (В) 20000 м    10/3 1000 м средняя 
[Sc|Ac und]
+8 +5.2 82 +6  1020.7  -0.7  725  283           
03 12.10.16 070 (В) 20000 м    10/4 600 м средняя 
[Sc|Ac und]
+6 +1.9 75 +4  1021.2  725  285  +6        сухая 
06 12.10.16 070 (В) 6{10}  20000 м    10/4 1000 м средняя 
[Sc|Ac und]
+6.3 -0.6 61 +4  1022.3  1.1  726  286  +5.6         
09 12.10.16 090 (В) 8-10{12}  20000 м    10/6 600 м средняя 
[Sc|Ac und]
+7 -0.4 59 +4  1022.5  0.4  726  285           
12 12.10.16 080 (В) 9-12{12}  20000 м    10/5 600 м средняя 
[Sc|Ac und]
+5.8 -0 66 +3  1022.7  -0.1  726  286           
15 12.10.16 090 (В) 8-11{12}  20000 м    10/5 1000 м средняя 
[Sc|Ac und]
+5.1 -0.2 69 +2  1023  0.1  726  287    +7.3       
18 12.10.16 090 (В) 9-12{12}  20000 м    10/4 600 м средняя 
[Sc|Ac und]
+5 -1.3 64 +2  1023.3  0.3  726  287           
21 12.10.16 100 (В) 8-11{13}  20000 м    10/5 600 м средняя 
[Sc|Ac und]
+4.9 -1.5 63 +2  1022.4  -0.8  726  287           
00 13.10.16 110 (В) 10-15{15}  20000 м    10/6 600 м средняя 
[Sc|Ac und]
+4.4 -2.2 62 +1  1021.1  -1.4  725  288           
03 13.10.16 110 (В) 9-13{15}  20000 м    10/6 300 м кучево-дожд., средняя 
[Cb calv|Ac und]
+3.7 -0.1 76 1020.9  -0.3  725  288  +3.7        сухая 
06 13.10.16 120 (ЮВ) 10-15{15}  20000 м  слаб. ливневой дождь  10/8 300 м кучево-дожд., средняя 
[Cb cap|Ac und]
+4.4 +2.7 89 +1  1020.7  724  287  +3.2         
09 13.10.16 120 (ЮВ) 8-10{16}  10 км  слаб. ливневой дождь  10/8 200 м кучево-дожд., средняя 
[Cb cap|Ac und]
+5.4 +4.5 94 +2  1019.8  -0.7  724  285           
12 13.10.16 130 (ЮВ) 8-11{15}  20000 м  {ливн. осадки}  10/8 200 м кучево-дожд., средняя 
[Cb calv|Ac und]
+6.4 +5.2 92 +4  1018.6  -0.9  723  284           
15 13.10.16 120 (ЮВ) 7-10{13}  20000 м  слаб. ливневой дождь  10/8 200 м кучево-дожд., средняя 
[Cb cap|Ac und]
+7.4 +6.4 93 +5  1016.5  -1.8  722  282    +7.4     
18 13.10.16 140 (ЮВ) 7{11}  20000 м  в посл. час ливневой дождь  10/6 200 м кучево-дожд., средняя 
[Cb calv|Ac und]
+7.5 +6.9 96 +5  1016.8  0.3  722  282           
21 13.10.16 160 (Ю) 6{10}  20000 м  слаб. ливневой дождь  10/8 200 м кучево-дожд., средняя 
[Cb cap|Ac und]
+7.9 +7.3 96 +6  1016.3  -0.4  722  281           
00 14.10.16 180 (Ю) 20000 м  {ливн. осадки}  10/3 600 м кучево-дожд., средняя 
[Cb calv|Ac und]
+7.9 +7.3 96 +6  1015.4  -1  721  281           
03 14.10.16 170 (Ю) 20000 м  слаб. дождь  10/5 600 м средняя 
[Sc|Ac und]
+7.7 +7 95 +7  1014.9  -0.5  721  281  +7.4      влажная 
06 14.10.16 210 (ЮЗ) 20000 м    4/3 300 м средняя 
[Sc|Ac trans]
+11.8 +9.3 85 +12  1014.1  721  277           
09 14.10.16 270 (З) 7-10{12}  4000 м  ливневой дождь  10/6 600 м кучево-дожд., средняя 
[Cb cap|Ac und]
+9.8 +7.9 88 +8  1015  0.4  721  279           
12 14.10.16 260 (З) 6{12}  20000 м  {ливн. осадки}  9/8 300 м кучево-дожд., средняя 
[Cb cap|Ac As]
+10.7 +7.5 81 +9  1014.9  -0.1  721  278           
15 14.10.16 250 (З) 6{11}  20000 м  в посл. час ливневой дождь  9/4 300 м кучево-дожд., средняя 
[Cb cap|Ac As]
+7.7 +5.3 85 +6  1017.5  1.9  723  282    +13.3     
18 14.10.16 280 (З) 6-10{11}  20000 м  {ливн. осадки}  9/6 600 м кучево-дожд., средняя 
[Cb calv|Ac trans]
+8.1 +6.6 90 +6  1019  1.5  724  282           
21 14.10.16 280 (З) 4{10}  20000 м    9/8 300 м средняя 
[St|Ac As]
+7.7 +6.3 91 +6  1019.8  0.6  724  283           
00 15.10.16 310 (СЗ) 0200 м  слаб. морось{дождь}  ?/?  
+6.1 +5.4 95 +5  1020.7  0.5  725  285           
03 15.10.16 320 (СЗ) 0100 м  туман{морось}  ?/?  
+5 +4.4 96 +3  1022.4  1.4  726  286  +4.9    0.3    влажная 
06 15.10.16 330 (СЗ) 30000 м  дымка{морось, туман}  10/10 200 м 
[St]
+4.6 +4 96 +3  1024.2  1.6  727  287  +4.3         
09 15.10.16 330 (СЗ) 3000 м  дымка  10/10 200 м 
[St]
+5.1 +4.5 96 +5  1024.5  0.4  727  287           
12 15.10.16 330 (СЗ) 4000 м  дымка{морось}  10/10 300 м 
[St]
+5.4 +4.9 97 +4  1024.9  0.4  728  287           
15 15.10.16 310 (СЗ) 20000 м    10/6 600 м средняя 
[Sc|Ac und]
+5.5 +3.9 89 +6  1025.8  0.8  728  287    +5.8  0.3     
18 15.10.16 350 (С) 20000 м    9/9 600 м 
[Sc]
+5 +3.7 91 +6  1026.3  0.4  728  288           
21 15.10.16 350 (С) 10 км    8/8 600 м 
[Sc]
+3.5 +2.5 93 +3  1026.5  0.1  728  289           
00 16.10.16 340 (С) 10 км    9/9 600 м 
[Sc]
+3.1 +2.2 94 +4  1026.2  -0.3  728  290           
03 16.10.16 040 (СВ) 20000 м  дымка  10/10 200 м 
[St]
+2.3 +1.5 94 +1  1026.7  0.3  728  291  +2.3        влажная 
06 16.10.16 060 (СВ) 20000 м    9/9 1000 м 
[Sc]
+2.8 +0.2 83 +1  1027.9  1.2  729  291  +1.9         
09 16.10.16 050 (СВ) 20000 м    8/8 600 м 
[Sc]
+5.7 -0.8 63 +4  1027.3  0.1  729  288           
12 16.10.16 050 (СВ) 20000 м    9/9 1000 м 
[Sc]
+5.7 -1.9 58 +5  1027  -0.2  729  288           
15 16.10.16 050 (СВ) 20000 м    4/1 1000 м верхняя 
[Sc|Ci fib]
+3.3 -2.1 68 +3  1028.4  0.8  730  291    +6       
18 16.10.16 030 (СВ) 20000 м    3/0 средняя 
[Ac trans]
+2.4 -1.1 78 +1  1029.2  0.6  730  292           
21 16.10.16 030 (СВ) 20000 м    4/4 1000 м 
[Sc]
+1.6 -0 89 1029.9  0.5  731  293           
00 17.10.16 020 (С) 20000 м    8/3 1000 м средняя 
[Sc|Ac trans]
+1 -0.4 90 1030.3  0.3  731  293           
03 17.10.16 360 (С) 20000 м    4/4 1500 м 
[Sc]
-0.4 -1.3 94 1031.2  0.6  731  295  -0.4        влажная 
06 17.10.16 050 (СВ) 10 км    8/5 200 м средняя 
[St|Ac trans]
+1.5 +0.2 91 -1  1032.4  1.4  732  293  -0.5         
09 17.10.16 060 (СВ) 20000 м    8/5 1000 м кучево-дожд., средняя 
[Cb calv|Ac trans]
+4.1 -1 69 +1  1032.7  0.8  733  291           
12 17.10.16 060 (СВ) 20000 м    9/5 1000 м кучево-дожд., средняя 
[Cb calv|Ac trans]
+5.9 -2.2 56 +4  1032.9  0.6  733  289           
15 17.10.16 060 (СВ) 4{10}  20000 м    4/4 1000 м 
[Sc diur, vesp]
+2.2 -3 68 1034.9  1.2  734  294    +6.3       
18 17.10.16 060 (СВ) 20000 м    6/6 1000 м 
[Sc]
+0.9 -3.1 75 -2  1036.1  0.8  735  295           
21 17.10.16 050 (СВ) 20000 м    ясно 
-1.2 -2.3 92 -4  1036.1  -0.3  735  298           
00 18.10.16 090 (В) 20000 м    ясно 
-1.7 -2.7 93 -5  1035.4  -0.8  734  298           
03 18.10.16 090 (В) 10 км    10/10 200 м 
[St]
-0.9 -1.7 94 -5  1035.1  -0.2  734  297  -2.3        замёрзшая 
06 18.10.16 100 (В) 7-10{10}  10 км    9/9 200 м 
[St]
+0.6 -0.3 94 -3  1034.9  0.2  734  295           
09 18.10.16 090 (В) 9-12{14}  20000 м    4/4 300 м 
[Sc]
+5.4 -2.3 58 +2  1033.1  -0.8  733  290           
12 18.10.16 100 (В) 8-11{13}  20000 м    4/4 600 м 
+6.7 -3.1 50 +4  1031.9  -0.8  733  288           
15 18.10.16 090 (В) 5{12}  20000 м    3/3 1000 м 
[Sc]
+2.5 -3 67 1032.6  0.1  733  293    +7.1       
18 18.10.16 080 (В) 20000 м    ясно 
+0.7 -3.1 76 -3  1032.3  -0.7  732  295           
21 18.10.16 080 (В) 20000 м    3/0 средняя 
[Ac trans]
-0.5 -3.3 81 -4  1031.6  -0.8  731  296           
00 19.10.16 090 (В) 20000 м    9/5 1000 м средняя 
[Sc|Ac trans]
+1.6 -1 83 -2  1030.4  -0.8  731  293           
03 19.10.16 100 (В) 20000 м    10/8 600 м средняя 
[Sc|Ac und]
+1.7 -0.1 88 -1  1029.9  -0.4  731  292  -0.8        влажная 
06 19.10.16 110 (В) 10-13{13}  20000 м    10/6 300 м средняя 
[St|Ac und]
+3.2 +0.6 83 -1  1029.2  -0.3  730  291           
09 19.10.16 100 (В) 9-12{13}  10 км    10/10 200 м 
[St]
+3.5 +1.9 89 1029.1  730  290           
12 19.10.16 100 (В) 9-11{12}  20000 м    10/10 200 м 
[St]
+3.7 +1.7 87 1028.6  730  290           
15 19.10.16 100 (В) 7-10{12}  20000 м    10/10 300 м 
[St]
+3.5 +1.7 88 1028.4  -0.2  730  290    +4.1       
18 19.10.16 100 (В) 7{10}  20000 м    10/10 300 м 
[St]
+3.2 +0.7 84 1028.1  -0.4  730  290           
21 19.10.16 100 (В) 20000 м    10/10 200 м 
[St]
+3 +2 93 1027  -1.1  729  290           
00 20.10.16 100 (В) 6{10}  0500 м  туман  ?/?  
+3.2 +2.6 96 1026  -0.9  728  289           
03 20.10.16 090 (В) 0200 м  туман  ?/?  
+3.2 +2.7 97 +1  1025.4  -0.5  728  289  +3        сухая 
06 20.10.16 090 (В) 0200 м  туман  ?/?  
+3.4 +2.9 97 1025.8  0.3  728  289           
09 20.10.16 090 (В) 0200 м  туман  ?/?  
+4.3 +3.8 97 +2  1025.6  0.1  728  288           
12 20.10.16 080 (В) 0500 м  туман  ?/?  
+5.2 +4.7 97 +3  1025.5  728  287           
15 20.10.16 080 (В) 0200 м  туман  ?/?  
+5.7 +5.2 97 +4  1026  0.6  728  287    +5.7       
18 20.10.16 070 (В) 5000 м  дымка{туман}  10/10 100 м 
[St]
+5 +4.5 97 +3  1026.7  0.5  729  288           
21 20.10.16 090 (В) 10 км    10/10 300 м 
[St]
+6.1 +5.6 97 +4  1026.8  0.3  729  286           
00 21.10.16 110 (В) 20000 м    10/10 200 м 
[St]
+6.4 +5.7 95 +4  1026.8  0.1  729  286           
03 21.10.16 110 (В) 7-10{11}  20000 м    10/10 200 м 
[St]
+6.2 +5.1 93 +4  1027.2  0.3  729  286  +4.9         
06 21.10.16 120 (ЮВ) 9-13{13}  20000 м  {морось}  10/10 200 м 
[St]
+6.4 +5.1 91 +3  1028.3  1.1  730  287           
09 21.10.16 120 (ЮВ) 10-15{15}  20000 м    10/8 300 м средняя 
[Sc|Ac und]
+7.9 +4.5 79 +5  1028.5  0.5  731  285           
12 21.10.16 110 (В) 10-14{15}  20000 м    9/6 600 м средняя 
[Sc|Ac trans]
+8.2 +4.2 76 +5  1028.5  0.5  731  285           
15 21.10.16 100 (В) 9-12{15}  20000 м    10/8 600 м средняя 
[Sc|Ac und]
+7 +2.4 72 +4  1029.2  0.4  731  287    +8.6       
18 21.10.16 100 (В) 8-11{13}  20000 м    3/3 1000 м 
[Sc]
+4.1 +0.6 78 +1  1029.5  -0.2  731  290           
21 21.10.16 100 (В) 9-12{15}  20000 м    6/6 300 м 
[Sc]
+1.7 -1.4 80 -2  1030.3  0.3  731  293           
00 22.10.16 100 (В) 8-11{14}  20000 м    10/10 300 м 
[St]
+2.2 +0.2 87 -2  1029.4  -0.7  730  292           
03 22.10.16 110 (В) 8-11{13}  20000 м    10/10 300 м 
[St]
+2 +0.6 90 -2  1029.2  -0.7  730  292  +1.5         
06 22.10.16 110 (В) 10-13{14}  20000 м    10/10 200 м 
[St]
+3.4 +1.8 89 -1  1029.4  0.4  730  290           
09 22.10.16 110 (В) 9-13{15}  20000 м    10/8 300 м средняя 
[St|Ac und]
+5.1 +2.4 83 +2  1028.7  -0.4  730  288           
15 22.10.16 110 (В) 10-14{16}  20000 м    10/8 600 м средняя 
[Sc|Ac und]
+5.9 +0.8 70 +2  1028.2  0.2  730  288    +6.9       
18 22.10.16 110 (В) 10-13{15}  20000 м    10/8 300 м средняя 
[Sc|Ac und]
+5 +1.3 77 +1  1028.1  -0.3  730  288           
21 22.10.16 110 (В) 9-12{15}  20000 м    10/10 300 м 
[Sc]
+3.5 +0.3 80 1028.2  -0.2  730  290           
00 23.10.16 110 (В) 9-12{14}  20000 м    10/10 300 м 
[St]
+2.8 -0.4 79 -1  1027.6  -0.6  729  291           
03 23.10.16 100 (В) 10-14{14}  20000 м    10/5 300 м средняя 
[St|Ac und]
+2.5 -0.2 82 -2  1027.5  -0.6  729  291  +2.3         
06 23.10.16 110 (В) 10-14{15}  20000 м    10/10 300 м 
[St]
+3.7 +1.2 84 1027.9  0.6  729  290           
09 23.10.16 110 (В) 10-14{15}  20000 м    10/10 300 м 
[St]
+4.3 +1.7 83 1027.7  729  289           
12 23.10.16 090 (В) 10-13{14}  20000 м    10/10 300 м 
[St]
+4.2 +1.2 81 1028.1  0.3  730  289           
15 23.10.16 090 (В) 7{13}  20000 м    10/8 300 м средняя 
[Sc|Ac und]
+4.4 +0.4 75 +1  1028.8  0.7  730  289    +4.9       
18 23.10.16 090 (В) 8-11{11}  2000 м  дымка  10/10 100 м 
[St]
+5 +4.3 95 +2  1028  -0.5  730  288           
21 23.10.16 090 (В) 10-13{13}  2000 м  дымка  10/10 100 м 
[St]
+4.5 +3.8 95 +1  1028.3  0.1  730  289           
00 24.10.16 090 (В) 9-12{15}  20000 м  {туман}  10/10 300 м 
[St]
+3.7 +2.2 90 1029.2  0.7  730  290           
03 24.10.16 090 (В) 10-13{14}  20000 м    10/5 300 м средняя 
[Sc|Ac und]
+3.6 +1.6 87 1030.6  1.3  731  291  +3.6         
06 24.10.16 080 (В) 10-13{13}  20000 м    10/10 300 м 
[St]
+4 +1.7 85 1032.1  1.5  732  291  +3.4         
09 24.10.16 090 (В) 11-14{16}  20000 м  {дождь}  10/10 600 м 
[Sc]
+4.7 +0.5 74 +1  1032.9  0.9  733  290           
12 24.10.16 090 (В) 13-17{17}  20000 м  {дождь}  10/10 600 м 
[Sc]
+4 -0.8 71 -1  1034.2  734  292           
15 24.10.16 090 (В) 12-16{17}  20000 м    10/10 600 м 
[Sc]
+2.8 -2.6 68 -2  1035.3  0.8  734  293    +4.8  0.0     
18 24.10.16 090 (В) 11-14{18}  20000 м    10/8 300 м средняя 
[Sc|Ac und]
+0.7 -3.1 76 -4  1036.6  0.9  735  296           
21 24.10.16 090 (В) 10-14{16}  20000 м    10/8 300 м средняя 
[Sc|Ac und]
-0.5 -3.7 79 -5  1036.5  -0.3  735  297           
00 25.10.16 080 (В) 11-16{17}  20000 м  слаб. снег  10/10 300 м 
[Ns]
-1.1 -3.6 83 -7  1036.5  -0.2  735  298           
03 25.10.16 080 (В) 10-14{16}  20000 м  слаб. снег  10/10 300 м 
[Ns]
-1.5 -4.3 81 -7  1036.9  0.3  735  298  -1.6    0.0     
06 25.10.16 090 (В) 12-15{16}  20000 м  {снег}  10/10 300 м 
[Sc]
-0.2 -4.1 75 -6  1037.5  0.8  736  297           
09 25.10.16 090 (В) 15-19{19}  20000 м    10/10 600 м 
[Sc]
+2 -3.7 66 -4  1037.2  0.1  736  295           
12 25.10.16 090 (В) 12-16{19}  20000 м    9/9 600 м 
[Sc]
+2.5 -4.9 58 -2  1036.7  -0.3  735  294           
15 25.10.16 090 (В) 11-15{17}  20000 м    10/10 1000 м 
[Sc]
+0.8 -6.3 59 -4  1037  0.1  735  296    +3.5  0.0     
18 25.10.16 090 (В) 11-15{16}  20000 м    10/8 600 м средняя 
[Sc|Ac und]
-0.8 -5.6 70 -6  1037.1  -0.2  735  298           
21 25.10.16 100 (В) 10-14{16}  20000 м    10/8 600 м средняя 
[Sc|Ac und]
-1.7 -5.3 76 -7  1035.9  -1.4  734  298           
00 26.10.16 090 (В) 9-12{16}  20000 м    10/8 300 м средняя 
[Sc|Ac und]
-2.1 -5.5 77 -7  1034.6  -1.2  733  298           
03 26.10.16 100 (В) 10-12{14}  20000 м    10/10 300 м 
[Sc]
-2.5 -5.2 82 -8  1033.7  -0.9  733  298  -2.6         
06 26.10.16 090 (В) 11-14{14}  20000 м  слаб. снег  10/10 300 м 
[Ns]
-1.4 -4 82 -7  1033.2  -0.3  732  297           
09 26.10.16 090 (В) 11-14{15}  20000 м  {снег}  10/10 300 м 
[Sc]
+1.1 -3 74 -4  1031.6  -0.3  732  294           
12 26.10.16 100 (В) 10-13{15}  20000 м  {снег}  10/10 600 м 
[Sc]
+2.2 -3.2 67 -2  1030.4  -0.9  731  292           
15 26.10.16 090 (В) 9-12{13}  20000 м    10/6 600 м средняя 
[Sc|Ac und]
+2.2 -3.9 64 -2  1029.8  -0.6  731  292    +2.7  0.0     
18 26.10.16 110 (В) 8-11{13}  20000 м    10/8 300 м средняя 
[Sc|Ac und]
+0.6 -2.8 78 -4  1029.1  -1  730  294           
21 26.10.16 090 (В) 7{14}  4000 м  дымка  10/10 200 м 
[St]
-0.8 -1.6 94 -5  1028.6  -0.7  729  295           
00 27.10.16 090 (В) 6{11}  2000 м  дымка  10/10 100 м 
[St]
-1.2 -1.8 96 -5  1028.2  -0.5  729  295           
03 27.10.16 090 (В) 1200 м  дымка  10/10 50 м 
[St]
-1.5 -2.1 96 -5  1028.6  0.3  729  296  -1.5         
06 27.10.16 100 (В) 20000 м    10/10 200 м 
[St]
-0.6 -1.8 92 -4  1029.7  1.3  730  295  -1.5         
09 27.10.16 100 (В) 20000 м    10/10 300 м 
[St]
+0.4 -1.6 86 -3  1029.4  0.1  730  294           
12 27.10.16 090 (В) 7{10}  20000 м    10/10 300 м 
[St]
+0.5 -1.4 87 -3  1029.7  0.3  730  294           
15 27.10.16 110 (В) 6{10}  20000 м    10/10 300 м 
[St]
+0.4 -1.1 90 -3  1030.3  0.5  731  294    +0.7       
18 27.10.16 110 (В) 20000 м    10/10 200 м 
[St]
+0.5 -0.9 90 -3  1030.4  0.1  731  294           
21 27.10.16 110 (В) 20000 м    10/10 200 м 
[St]
+0.4 -0.6 93 -3  1030.2  0.1  731  294           
00 28.10.16 120 (ЮВ) 20000 м    8/8 200 м 
[St]
+0.1 -1 92 -2  1030.3  731  294           
03 28.10.16 100 (В) 20000 м    10/10 200 м 
[St]
+0.3 -0.6 94 -3  1030.5  0.2  731  294  +0         
06 28.10.16 110 (В) 20000 м    10/10 100 м 
[St]
+1.2 +0.1 92 -1  1031.2  0.8  731  293           
09 28.10.16 110 (В) 20000 м    10/8 300 м средняя 
[St|Ac und]
+3.6 +0.8 82 +1  1029.9  -0.7  731  290           
12 28.10.16 080 (В) 20000 м  слаб. морось  10/10 300 м 
[St]
+3 +1.4 89 +2  1030  731  291           
15 28.10.16 120 (ЮВ) 1500 м  слаб. дождь{морось}  10/10 100 м 
[Ns]
+2.2 +1.5 95 +1  1029.7  -0.5  731  292    +3.8  0.4     
18 28.10.16 110 (В) 1200 м  дымка{дождь, морось}  10/10 100 м 
[St]
+2 +1.4 96 +1  1029.2  -0.5  730  292           
21 28.10.16 090 (В) 0300 м  туман  ?/?  
+2 +1.4 96 +1  1028.3  -0.9  729  292           
00 29.10.16 080 (В) 0300 м  туман  ?/?  
+1.8 +1.2 96 +3  1026.7  -1.5  728  291           
03 29.10.16 070 (В) 0100 м  туман  ?/?  
+1.7 +1.1 96 +2  1025.6  -1.1  728  291  +1.6    0.3     
06 29.10.16 150 (ЮВ) 0100 м  туман  ?/?  
+2.7 +2.1 96 +2  1025.1  -0.3  727  290           
09 29.10.16 170 (Ю) 4000 м  дымка{туман}  10/10 200 м 
[St]
+4.4 +3.9 97 +4  1022.9  -1.7  726  287           
12 29.10.16 260 (З) 20000 м  {туман}  8/8 300 м 
[Sc]
+5.9 +2.5 79 +4  1020.9  -1.6  725  285           
15 29.10.16 190 (Ю) 20000 м    6/0 средняя, верхняя 
[Ac trans|Ci]
+1.2 -0.8 86 1020.4  -1.4  724  290    +6.4       
18 29.10.16 250 (З) 20000 м    8/0 средняя, верхняя 
[Ac trans|Ci fib]
+2.9 -0.7 77 +1  1018.9  -1.1  723  288           
21 29.10.16 200 (Ю) 20000 м    8/3 600 м средняя 
[Sc|Ac As]
+3.6 +1.2 84 +2  1016.2  -2.5  721  287           
00 30.10.16 190 (Ю) 20000 м    10/6 600 м средняя 
[Sc|Ac und]
+4.4 +2.2 86 +3  1015  -0.9  720  285           
03 30.10.16 220 (ЮЗ) 20000 м    10/4 1000 м средняя 
[Sc|Ac und]
+5.9 +2.7 80 +6  1012.1  -2.5  719  283  +1.2         
06 30.10.16 320 (СЗ) 10 км  слаб. ливневой дождь  10/6 600 м кучево-дожд., средняя 
[Cb cap|Ac und]
+4.7 +3.4 91 +4  1011.4  -0.9  718  284           
09 30.10.16 250 (З) 10 км  слаб. ливневой дождь  10/8 600 м кучево-дожд., средняя 
[Cb cap|Ac und]
+3.5 +2.8 95 +1  1010.5  -1.1  717  285           
12 30.10.16 270 (З) 5{10}  20000 м  слаб. ливневой дождь  10/8 300 м кучево-дожд., средняя 
[Cb cap|Ac und]
+1.5 +0.8 95 -1  1011.4  0.5  717  287           
15 30.10.16 260 (З) 5{10}  20000 м  {ливн. осадки}  10/8 300 м кучево-дожд., средняя 
[Cb calv|Ac und]
+1.9 +0.7 92 -1  1013  1.6  719  287    +7.4  19     
18 30.10.16 250 (З) 20000 м  {ливн. осадки}  4/4 300 м 
[St]
+2.3 +0.9 90 1014.1  719  287           
21 30.10.16 280 (З) 5{11}  20000 м    4/0 средняя 
[Ac trans]
+1.7 +0.2 90 -1  1014.9  0.7  720  288           
00 31.10.16 260 (З) 20000 м    8/8 300 м 
[St]
+1.9 +0.1 88 1014.8  0.1  720  288           
03 31.10.16 260 (З) 6-11{11}  20000 м    ясно 
+1.2 -1.1 85 -2  1014.3  -0.6  719  289  +0.2         
06 31.10.16 250 (З) 8-11{11}  20000 м    6/0 средняя, верхняя 
[Ac trans|Ci fib]
+4.1 +0.5 77 +1  1014.8  720  286           
09 31.10.16 260 (З) 10-14{16}  20000 м    8/3 600 м кучево-дожд., средняя 
[Cb calv|Ac trans]
+7.2 +0.9 64 +4  1013.2  -0.9  719  282           
12 31.10.16 270 (З) 5{14}  20000 м    6/3 600 м кучево-дожд., средняя 
[Cb calv|Ac trans]
+7.1 +1.1 66 +5  1012.8  -0.3  719  282           
15 31.10.16 190 (Ю) 2{10}  20000 м  в посл. час ливневой дождь  10/5 600 м кучево-дожд., средняя 
[Cb calv|Ac und]
+3.7 +1.8 87 +3  1014  0.5  720  286    +7.6  0.0     
18 31.10.16 250 (З) 10 км  слаб. ливневой снег  10/6 300 м кучево-дожд., средняя 
[Cb cap|Ac und]
+2.1 +1.1 93 1015.4  0.9  720  288           
21 31.10.16 250 (З) 6{11}  20000 м  {ливн. осадки}  ясно 
+1 -0.6 89 -2  1015.9  0.3  721  289           
00 01.11.16 250 (З) 20000 м  слаб. ливневой дождь  10/6 300 м кучево-дожд., средняя 
[Cb cap|Ac und]
+1.6 +0.2 90 -1  1015.7  0.1  720  288           
03 01.11.16 260 (З) 20000 м  {ливн. осадки}  8/8 300 м 
[St]
+1.9 +0.7 92 -1  1016  0.4  721  288  +0.5       
06 01.11.16 260 (З) 20000 м  {ливн. осадки}  9/9 600 м 
[Sc]
+2.7 +0.5 85 1016.7  0.7  721  288           
Время (UTC), дата Ветер
(°,м/с) 
Видим.   Явления Облачность Т
(°С)
Тd
(°С)
f(%) Тe
(°С)
Pmin
(гПа)
dP
(гПа)
Po
(мм)
O2
(г/м3)
Тmin Tmax R s Состояние
почвы